Vorticity
5 5 6 6 6 5 5 4 4 5 5 5 4 4 6 6 6 7 5 5 3 2
9 10 10 9 8 7 7 7 8 7 7 7 7 8 8 9 5 4 3 -1 -1 2
7 7 7 8 8 7 8 8 9 10 12 11 9 7 4 4 5 3 3 1 6 8
5 8 9 8 7 7 7 8 9 8 4 3 2 1 1 5 8 8 3 3 -1 16
14 15 12 10 9 9 9 9 6 3 1 1 4 6 3 -1 0 4 4 22 41 -3
8 8 8 7 7 7 7 6 6 5 4 4 4 7 8 7 15 42 19 -3 4 4
7 7 7 8 7 7 6 6 5 5 5 7 15 28 38 26 -3 6 7 0 7 7
4 2 0 2 5 8 10 12 17 25 27 17 5 -1 7 5 1 4 12 13 6 8
4 9 14 12 11 17 20 21 10 5 1 -1 5 5 8 6 11 9 11 8 7 10
13 16 19 16 9 8 9 6 5 1 2 3 9 10 10 11 10 7 10 10 14 14
13 6 7 6 2 1 2 4 6 6 10 9 4 3 6 7 8 7 12 14 15 10
6 4 2 2 5 7 8 8 5 5 5 7 8 9 11 11 11 15 19 13 10 9
3 6 6 7 7 6 6 6 8 6 4 8 12 13 11 10 9 9 9 11 11 12
6 8 10 9 7 3 3 4 6 8 18 23 19 19 13 11 10 9 11 16 17 18
Height
5761 5758 5754 5752 5749 5745 5742 5738 5734 5731 5727 5723 5719 5715 5711 5706 5702 5697 5693 5688 5683 5679
5753 5750 5746 5743 5740 5736 5733 5729 5725 5721 5717 5713 5708 5704 5700 5696 5691 5687 5681 5676 5671 5665
5744 5741 5737 5733 5729 5725 5721 5717 5714 5710 5706 5701 5697 5693 5689 5684 5678 5673 5668 5662 5656 5650
5735 5731 5727 5723 5719 5714 5710 5706 5702 5698 5693 5689 5684 5680 5675 5670 5664 5659 5652 5647 5640 5634
5724 5720 5716 5712 5707 5702 5698 5693 5689 5685 5680 5676 5671 5665 5661 5655 5649 5643 5636 5630 5623 5618
5713 5709 5706 5701 5697 5692 5687 5683 5677 5672 5667 5662 5656 5651 5645 5638 5632 5626 5619 5614 5608 5601
5702 5698 5693 5689 5684 5679 5674 5669 5664 5658 5652 5646 5640 5634 5627 5622 5616 5610 5603 5597 5590 5584
5690 5685 5680 5675 5670 5664 5659 5653 5647 5641 5634 5629 5623 5618 5612 5606 5601 5595 5588 5581 5575 5568
5677 5671 5665 5659 5654 5648 5642 5636 5631 5625 5619 5614 5608 5601 5594 5588 5583 5577 5571 5564 5558 5552
5662 5656 5651 5645 5640 5635 5629 5624 5617 5610 5604 5598 5590 5582 5576 5570 5566 5559 5552 5547 5540 5533
5647 5642 5637 5632 5626 5620 5613 5607 5600 5593 5585 5579 5572 5564 5558 5552 5548 5543 5534 5528 5522 5515
5632 5627 5621 5615 5609 5602 5596 5589 5582 5575 5567 5560 5554 5543 5536 5530 5527 5523 5516 5508 5503 5498
5616 5609 5603 5597 5591 5584 5576 5571 5562 5555 5545 5536 5531 5521 5514 5509 5505 5502 5496 5491 5485 5481
5599 5592 5584 5578 5569 5561 5554 5546 5538 5530 5522 5513 5503 5499 5491 5487 5485 5481 5477 5473 5469 5465